Location: Bailen
(14.1842°N, 120.7958°E)
Time: 23:33:29
(UTC+00:00)

Cosmos 2184 Rocket - Visible Passes

Search period start: 18 April 2026 00:00
Search period end: 28 April 2026 00:00
Orbit: 958 x 1001 km, 82.9° (Epoch: 18 April)

Date Brightness Start Highest point End Pass type
(mag) Time Alt. Az. Time Alt. Az. Time Alt. Az.
18 Apr 5.9 11:13:03 10° SW 11:18:39 33° W 11:24:16 10° NNW visible
19 Apr 7.0 11:42:04 10° WSW 11:45:23 15° W 11:48:43 10° NW visible
19 Apr 6.8 21:07:30 10° NNE 21:12:13 23° E 21:16:54 10° SE visible
20 Apr 4.3 10:20:10 10° S 10:26:32 80° W 10:32:53 10° N visible
21 Apr 5.8 10:47:23 10° SSW 10:53:09 37° W 10:58:56 10° NNW visible
22 Apr 7.0 11:16:03 10° WSW 11:19:52 17° W 11:23:43 10° NW visible
22 Apr 6.8 20:42:17 10° NE 20:46:41 20° E 20:51:02 10° SE visible
23 Apr 5.3 21:07:31 10° NNE 21:13:22 45° E 21:19:11 10° SSE visible
24 Apr 5.7 10:21:44 10° SSW 10:27:40 41° W 10:33:34 10° NNW visible
25 Apr 6.9 10:50:06 10° SW 10:54:22 19° W 10:58:37 10° NW visible
25 Apr 6.8 20:17:09 10° NE 20:21:09 18° E 20:25:08 10° ESE visible
26 Apr 5.5 20:42:08 10° NNE 20:47:51 40° E 20:53:33 10° SSE visible
27 Apr 4.1 21:08:17 10° N 21:14:27 89° E 21:20:37 10° S visible
